ELECTRON R/B (45729 NORAD) Tracking and Keplerian Element Data

This shows tracking and keplerian element data for the satellite.

Feedback or suggestion? Click here.




ElementValue
Catalog45729
NameELECTRON R/B
Epoch Orbit120
Epoch Day190.14028587
Epoch Year2020
RAAN13.5645
Inclination97.7721
Eccentricity0.0027366
Argument of Perigee142.2614
Mean Anonmoly218.8715
Mean Motion16.45740508
Decay Rate0.16420054
L11 45729U 20037G 20190.14028587 .16420054 25284-5 25810-3 0 9993
L22 45729 97.7721 13.5645 0027366 142.2614 218.8715 16.45740508 1205



Live tracking and technical data element details for ELECTRON R/B (NORAD 45729). ELECTRON R/B can be tracked NOW for your location showing map with azimuth and elevation plus other details from your city location.







IsCatalogInMostPopularTable: catalog: 45729, numindb: 126
Update: records affected: 1



GetName: 45729 ELECTRON R/B

Hit Count: updated at: Sat, 10 Jun 2023 23:40:12 GMT